Flag for Germany Weather past 2 weeks in Ehingen (Donau), Baden-Württemberg, Germany

Now
64 °F

Scattered clouds.


Feels Like: 64 °F
Forecast: 48 / 65 °F
Wind: 6 mph from West

Location: Laupheim Airport

Current Time: Aug 22, 2014 at 2:04:01 PM

Latest Report: Aug 22, 2014 at 1:20 PM


Visibility: N/A

Pressure: 30.01 "Hg

Humidity: 49%

Dew point: 45 °F

Location of Ehingen (Donau)Location

Historic Weather in Ehingen (Donau) — Graph

°F

Ehingen (Donau) temperature yesterday

Maximum temperature yesterday: 64 °F (at 4:01 PM)
Minimum temperature yesterday: 48 °F (at 6:20 AM)
Average temperature yesterday: 57 °F

Past Weeks' High & Low Weather Summary

 TemperatureHumidityPressure
High81 °F (Aug 10, 2:20 PM)100% (Aug 8, 12:20 AM)30.18 "Hg (Aug 8, 12:20 AM)
Low45 °F (Aug 22, 6:20 AM)43% (Aug 19, 5:20 PM)29.68 "Hg (Aug 13, 1:20 PM)
Average60 °F77%29.98 "Hg
* Reported Aug 7 12:20 PM — Aug 22 12:20 PM, Ehingen (Donau), Weather by CustomWeather, © 2014

Note: Actual official high and low records may vary slightly from our data, if they occured in-between our weather recording intervals... More about our weather records

Advertising

Ehingen (Donau) weather history for previous 24 hours

 ConditionsComfort  
Time TempWeatherWind HumidityBarometerVisibility
12:20 PM
Aug 22
63 °FScattered clouds.6 mph59%30.01 "HgN/A
11:20 AM61 °FScattered clouds.2 mph59%30.04 "HgN/A
10:20 AM57 °FScattered clouds.2 mph67%30.04 "HgN/A
9:20 AM52 °FScattered clouds.5 mph88%30.04 "HgN/A
8:20 AM48 °FScattered clouds.2 mph87%30.04 "HgN/A
7:20 AM48 °FPassing clouds.1 mph87%30.04 "HgN/A
6:20 AM45 °FPassing clouds.5 mph100%30.01 "HgN/A
5:20 AM46 °FPassing clouds.3 mph93%30.01 "HgN/A
4:20 AM46 °FPassing clouds.3 mph93%30.04 "HgN/A
3:20 AM48 °FPassing clouds.2 mph94%30.04 "HgN/A
2:20 AM48 °FPassing clouds.2 mph94%30.04 "HgN/A
1:20 AM50 °FPassing clouds.2 mph88%30.04 "HgN/A
12:20 AM52 °FPassing clouds.1 mph82%30.04 "HgN/A
11:20 PM
Aug 21
52 °FPassing clouds.2 mph82%30.04 "HgN/A
10:20 PM54 °FPassing clouds.2 mph77%30.04 "HgN/A
9:20 PM57 °FScattered clouds.3 mph67%30.04 "HgN/A
8:20 PM61 °FPassing clouds.2 mph55%30.04 "HgN/A
7:20 PM64 °FScattered clouds.2 mph46%30.01 "HgN/A
6:20 PM64 °FScattered clouds.2 mph46%30.01 "HgN/A
5:20 PM64 °FScattered clouds.2 mph46%30.04 "HgN/A
4:20 PM63 °FBroken clouds.6 mph52%30.04 "HgN/A
4:01 PM64 °FBroken clouds.1 mph49%30.04 "HgN/A
3:20 PM63 °FBroken clouds.2 mph49%30.04 "HgN/A
2:20 PM63 °FScattered clouds.2 mph52%30.07 "HgN/A
Weather by CustomWeather, © 2014

See weather overviewHow to use our weather pages